| time (UTC) | temp F | wind direction | speed MPH | gust MPH | rain 1hr in | rain 24hr in | rain mn in | humidity % | barometer mb |
| 20260505041549 | 39 | 23 | 6.0 | 12.0 | 0.00 | 0.00 | 0.00 | 48 | 1017.5 |
| 20260505040048 | 39 | 40 | 8.0 | 12.0 | 0.00 | 0.00 | 0.00 | 48 | 1017.3 |
| 20260505034540 | 40 | 35 | 9.0 | 11.0 | 0.00 | 0.00 | 0.00 | 47 | 1017.3 |
| 20260505033038 | 41 | 45 | 7.0 | 10.0 | 0.00 | 0.00 | 0.00 | 47 | 1016.9 |
| 20260505031543 | 42 | 32 | 7.0 | 12.0 | 0.00 | 0.00 | 0.00 | 45 | 1016.9 |
| 20260505030038 | 43 | 35 | 11.0 | 16.0 | 0.00 | 0.00 | 0.00 | 44 | 1016.5 |
| 20260505024547 | 44 | 20 | 10.0 | 16.0 | 0.00 | 0.00 | 0.00 | 42 | 1016.3 |
| 20260505023038 | 45 | 12 | 11.0 | 18.0 | 0.00 | 0.00 | 0.00 | 41 | 1016.3 |
| 20260505021540 | 46 | 2 | 14.0 | 20.0 | 0.00 | 0.00 | 0.00 | 39 | 1016.0 |
| 20260505020035 | 47 | 13 | 12.0 | 22.0 | 0.00 | 0.00 | 0.00 | 36 | 1015.8 |
| 20260505014558 | 49 | 6 | 14.0 | 23.0 | 0.00 | 0.00 | 0.00 | 33 | 1015.7 |
| 20260505013038 | 50 | 5 | 15.0 | 23.0 | 0.00 | 0.00 | 0.00 | 30 | 1015.3 |
| 20260505011539 | 51 | 8 | 18.0 | 29.0 | 0.00 | 0.00 | 0.00 | 27 | 1015.3 |
| 20260505010036 | 51 | 343 | 16.0 | 25.0 | 0.00 | 0.00 | 0.00 | 23 | 1015.3 |
| 20260505004541 | 52 | 29 | 15.0 | 26.0 | 0.00 | 0.00 | 0.00 | 23 | 1015.3 |
| 20260505003037 | 52 | 2 | 16.0 | 28.0 | 0.00 | 0.00 | 0.00 | 22 | 1015.2 |
| 20260505001537 | 53 | 310 | 20.0 | 30.0 | 0.00 | 0.00 | 0.00 | 19 | 1015.3 |
| 20260505000054 | 52 | 300 | 22.0 | 34.0 | 0.00 | 0.00 | 0.00 | 20 | 1015.3 |
| 20260504234547 | 53 | 326 | 22.0 | 29.0 | 0.00 | 0.00 | 0.00 | 19 | 1015.2 |
| 20260504233055 | 53 | 306 | 20.0 | 30.0 | 0.00 | 0.00 | 0.00 | 21 | 1015.3 |
| 20260504231538 | 52 | 336 | 19.0 | 31.0 | 0.00 | 0.00 | 0.00 | 23 | 1015.3 |
| 20260504230039 | 53 | 343 | 22.0 | 33.0 | 0.00 | 0.00 | 0.00 | 23 | 1015.2 |
| 20260504224540 | 53 | 323 | 18.0 | 31.0 | 0.00 | 0.00 | 0.00 | 23 | 1015.2 |
| 20260504223055 | 53 | 324 | 22.0 | 32.0 | 0.00 | 0.00 | 0.00 | 23 | 1015.1 |
| 20260504221538 | 52 | 308 | 26.0 | 33.0 | 0.00 | 0.00 | 0.00 | 24 | 1015.3 |
| 20260504220034 | 52 | 335 | 23.0 | 33.0 | 0.00 | 0.00 | 0.00 | 28 | 1015.3 |
| 20260504214536 | 53 | 333 | 24.0 | 35.0 | 0.00 | 0.00 | 0.00 | 28 | 1015.2 |
| 20260504213051 | 52 | 332 | 21.0 | 34.0 | 0.00 | 0.00 | 0.00 | 28 | 1015.4 |
| 20260504211538 | 52 | 316 | 21.0 | 35.0 | 0.00 | 0.00 | 0.00 | 27 | 1015.4 |
| 20260504210041 | 52 | 317 | 18.0 | 32.0 | 0.00 | 0.00 | 0.00 | 29 | 1015.4 |
| 20260504204545 | 52 | 334 | 25.0 | 37.0 | 0.00 | 0.00 | 0.00 | 29 | 1015.4 |
| 20260504203044 | 52 | 320 | 23.0 | 32.0 | 0.00 | 0.00 | 0.00 | 31 | 1015.4 |
| 20260504201539 | 51 | 313 | 22.0 | 32.0 | 0.00 | 0.00 | 0.00 | 33 | 1015.5 |
| 20260504200038 | 51 | 337 | 20.0 | 34.0 | 0.00 | 0.00 | 0.00 | 33 | 1015.5 |
| 20260504194535 | 51 | 342 | 21.0 | 29.0 | 0.00 | 0.00 | 0.00 | 33 | 1015.4 |
| 20260504193037 | 51 | 309 | 22.0 | 30.0 | 0.00 | 0.00 | 0.00 | 34 | 1015.5 |
| 20260504191537 | 51 | 318 | 21.0 | 34.0 | 0.00 | 0.00 | 0.00 | 34 | 1015.5 |
| 20260504190044 | 51 | 314 | 19.0 | 31.0 | 0.00 | 0.00 | 0.00 | 36 | 1015.5 |
| 20260504184538 | 51 | 330 | 17.0 | 33.0 | 0.00 | 0.00 | 0.00 | 37 | 1015.5 |
| 20260504183037 | 51 | 332 | 23.0 | 32.0 | 0.00 | 0.00 | 0.00 | 36 | 1015.5 |
| 20260504181543 | 50 | 315 | 17.0 | 25.0 | 0.00 | 0.00 | 0.00 | 38 | 1015.5 |
| 20260504180043 | 50 | 338 | 17.0 | 27.0 | 0.00 | 0.00 | 0.00 | 38 | 1015.7 |
| 20260504174538 | 50 | 293 | 14.0 | 26.0 | 0.00 | 0.00 | 0.00 | 38 | 1015.4 |
| 20260504173037 | 50 | 310 | 18.0 | 29.0 | 0.00 | 0.00 | 0.00 | 39 | 1015.7 |
| 20260504171545 | 50 | 328 | 16.0 | 23.0 | 0.00 | 0.00 | 0.00 | 39 | 1015.7 |
| 20260504081541 | 46 | 15 | 14.0 | 20.0 | 0.00 | 0.00 | 0.00 | 60 | 1015.3 |